SWA2 KLAX-KSEA

Flight info

Callsign SWA2
Flight time N/A
Altitude 36000
Route PITVE346039 BTG HAWKZ8 KSEA
Aircraft B738/M-SDE2E3FGHIRWXY/LB1

Departure

Time N/A
Airport Los Angeles International Airport (KLAX)

Arrival

Time 2026-05-06 00:02
Airport Seattle–Tacoma International Airport (KSEA)
Time Latitude Longitude Altitude Speed Heading
2026-05-05 23:58 47.60998 -122.31673 3319 ft 232 kts 181°
2026-05-05 23:59 47.59405 -122.31687 3017 ft 222 kts 181°
2026-05-05 23:59 47.57902 -122.31698 2729 ft 210 kts 181°
2026-05-05 23:59 47.56477 -122.31709 2454 ft 199 kts 182°
2026-05-05 23:59 47.55120 -122.31720 2191 ft 190 kts 181°
2026-05-06 00:00 47.54041 -122.31728 1995 ft 184 kts 181°
2026-05-06 00:00 47.52873 -122.31738 1768 ft 177 kts 181°
2026-05-06 00:00 47.51701 -122.31746 1562 ft 159 kts 181°
2026-05-06 00:00 47.50640 -122.31754 1332 ft 147 kts 181°
2026-05-06 00:01 47.49626 -122.31765 1151 ft 147 kts 182°
2026-05-06 00:01 47.48591 -122.31774 916 ft 149 kts 182°
2026-05-06 00:01 47.47543 -122.31776 665 ft 151 kts 185°
2026-05-06 00:01 47.46505 -122.31787 424 ft 148 kts 183°
2026-05-06 00:02 47.45570 -122.31794 383 ft 109 kts 181°
2026-05-06 00:02 47.45083 -122.31799 383 ft 36 kts 180°
2026-05-06 00:02 47.44907 -122.31759 383 ft 23 kts 162°
2026-05-06 00:02 47.44769 -122.31651 383 ft 18 kts 148°
2026-05-06 00:03 47.44764 -122.31646 383 ft 0 kts 149°
2026-05-06 00:05 47.44657 -122.31449 383 ft 19 kts 103°
2026-05-06 00:05 47.44647 -122.31257 383 ft 19 kts 91°
2026-05-06 00:05 47.44640 -122.31194 383 ft 15 kts 103°
2026-05-06 00:06 47.44561 -122.31030 383 ft 22 kts 145°
2026-05-06 00:06 47.44420 -122.30912 383 ft 24 kts 149°
2026-05-06 00:06 47.44351 -122.30757 383 ft 18 kts 101°
2026-05-06 00:06 47.44340 -122.30603 383 ft 12 kts 121°
2026-05-06 00:07 47.44288 -122.30514 383 ft 8 kts 130°
2026-05-06 00:07 47.44256 -122.30459 383 ft 0 kts 130°
2026-05-06 00:07 47.44253 -122.30454 383 ft 0 kts 130°